This is the latest recevied weather packets stored in our database for station/object K5NWZ. If no packets are shown the sender has not sent any weather packets the latest 10 day(s).
| Time | Temp. | Humidity | Pressure | Rain* | Wind** | Luminosity | Snow |
|---|---|---|---|---|---|---|---|
| 1787520838 | 27.78° C | 46% | 1026.9 hPa | 0 mm | - | 607 W/m² | - |
| 1787520533 | 27.22° C | 50% | 1026.8 hPa | 0 mm | - | 247 W/m² | - |
| 1787520230 | 27.22° C | 51% | 1027.5 hPa | 0 mm | - | 188 W/m² | - |
| 1787519930 | 27.78° C | 46% | 1027.2 hPa | 0 mm | - | 126 W/m² | - |
| 1787519626 | 28.33° C | 44% | 1027.4 hPa | 0 mm | - | 121 W/m² | - |
| 1787519324 | 27.78° C | 43% | 1027 hPa | 0 mm | - | 161 W/m² | - |
| 1787519020 | 27.78° C | 43% | 1027.3 hPa | 0 mm | - | 263 W/m² | - |
| 1787518716 | 27.78° C | 43% | 1027.4 hPa | 0 mm | - | 111 W/m² | - |
| 1787518411 | 27.78° C | 42% | 1027 hPa | 0 mm | - | 96 W/m² | - |
| 1787518106 | 27.22° C | 47% | 1027.5 hPa | 0 mm | - | 137 W/m² | - |
| 1787517801 | 27.22° C | 43% | 1027.4 hPa | 0 mm | - | 120 W/m² | - |
| 1787517498 | 27.78° C | 40% | 1027.9 hPa | 0 mm | - | 107 W/m² | - |
| 1787517194 | 27.78° C | 43% | 1028 hPa | 0 mm | - | 93 W/m² | - |
| 1787516892 | 27.78° C | 43% | 1028.1 hPa | 0 mm | - | 64 W/m² | - |
| 1787516589 | 29.44° C | 44% | 1028 hPa | 0 mm | - | 41 W/m² | - |
| 1787516288 | 30° C | 44% | 1027.4 hPa | 0 mm | - | 36 W/m² | - |
| 1787515983 | 30.56° C | 41% | 1027.4 hPa | 0 mm | - | 37 W/m² | - |
| 1787515679 | 31.11° C | 38% | 1027.6 hPa | 0 mm | - | 34 W/m² | - |
| 1787515374 | 31.67° C | 36% | 1027.6 hPa | 0 mm | - | 39 W/m² | - |
| 1787515069 | 31.67° C | 35% | 1027.5 hPa | 0 mm | - | 48 W/m² | - |
| 1787514762 | 32.22° C | 33% | 1028 hPa | 0 mm | - | 60 W/m² | - |
| 1787514456 | 32.22° C | 33% | 1027.7 hPa | 0 mm | - | 91 W/m² | - |
| 1787514151 | 32.22° C | 33% | 1027.9 hPa | 0 mm | - | 125 W/m² | - |
| 1787513846 | 32.22° C | 32% | 1028.1 hPa | 0 mm | - | 159 W/m² | - |
| 1787513541 | 32.22° C | 32% | 1028 hPa | 0 mm | - | 219 W/m² | - |
* Rain latest hour (hover to see other rain measurements)
** Current wind speed in m/s (hover to see current wind gust speed)